Location: West Sayville
(40.7279°N, 73.0976°W)
Time: 05:33:32
(UTC+00:00)

Helios 1A Rocket - Pass Details

Date: 29 October 2020
Orbit: 562 x 587 km, 98.3° (Epoch: 29 November)

Event Time Altitude Azimuth Distance (km) Brightness Sun altitude
Rises 23:35:21 0° 175° (S) 2,792 6.4 -20.1°
Reaches altitude 10° 23:37:31 10° 180° (S) 1,895 5.6 -20.6°
Maximum altitude 23:41:34 56° 259° (W) 692 3.6 -21.3°
Drops below altitude 10° 23:45:36 10° 338° (NNW) 1,896 5.8 -22.1°
Sets 23:47:48 0° 343° (NNW) 2,796 6.7 -22.5°
